Location: Artiguedieu
(43.5000°N, 0.5454°E)
Time: 00:15:00
(UTC+00:00)

Transit 2A Rocket - Pass Details

Date: 31 July 2021
Orbit: 586 x 916 km, 66.7° (Epoch: 19 September)

Event Time Altitude Azimuth Distance (km) Brightness Sun altitude
Rises 16:15:14 0° 272° (W) 2,908 9.1 32.0°
Reaches altitude 10° 16:18:54 10° 303° (WNW) 2,068 8.1 31.3°
Maximum altitude 16:20:46 12° 327° (NNW) 1,963 7.6 31.0°
Drops below altitude 10° 16:22:42 10° 351° (N) 2,147 7.5 30.6°
Sets 16:26:42 0° 21° (NNE) 3,160 8.0 29.9°
